XINGYUN-2 01 (45602 NORAD) Tracking and Keplerian Element Data

This shows tracking and keplerian element data for the satellite.

Feedback or suggestion? Click here.




ElementValue
Catalog45602
NameXINGYUN-2 01
Epoch Orbit193
Epoch Day145.89902547
Epoch Year2020
RAAN176.6611
Inclination97.555
Eccentricity0.0011386
Argument of Perigee216.3688
Mean Anonmoly143.6768
Mean Motion15.00649079
Decay Rate7.53E-06
L11 45602U 20028A 20145.89902547 .00000753 00000-0 64065-4 0 9995
L22 45602 97.5550 176.6611 0011386 216.3688 143.6768 15.00649079 1930

Live tracking and technical data element details for XINGYUN-2 01 (NORAD 45602). XINGYUN-2 01 can be tracked NOW for your location showing map with azimuth and elevation plus other details from your city location.

Track the satellite on the map from your city or location and see movement details for azimuth, elevation, latitude, longitude, range, height, and movement on the map or in text.







IsCatalogInMostPopularTable: catalog: 45602, numindb: 1
Update: records affected: 1



GetName: 45602 XINGYUN-2 01

Hit Count: updated at: Tue, 26 May 2020 03:36:09 GMT